Location: Melbourne
(37.8170°S, 144.9670°E)
Time: 08:11:15
(UTC+10:00)

Transit 2A - All Passes

Search period start: 17 April 2014 00:00
Search period end: 27 April 2014 00:00
Orbit: 600 x 964 km, 66.7° (Epoch: 16 April)

Date Brightness Start Highest point End Pass type
(mag) Time Alt. Az. Time Alt. Az. Time Alt. Az.
17 Apr - 00:05:42 10° WSW 00:09:39 18° WNW 00:13:38 10° NW night (unlit)
17 Apr - 12:59:38 10° NNW 13:04:19 88° ENE 13:09:35 10° SSE daylight
17 Apr - 14:45:56 10° WSW 14:48:28 14° SW 14:51:08 10° SSW daylight
17 Apr - 20:07:05 10° SSE 20:08:51 11° SE 20:10:39 10° SE visible
17 Apr - 21:47:23 10° SSW 21:53:29 54° ESE 21:59:43 10° NE visible
17 Apr - 23:31:27 10° SW 23:36:27 25° WNW 23:41:29 10° NNW night (unlit)
18 Apr - 12:26:23 10° NNW 12:30:58 58° ENE 12:36:05 10° SE daylight
18 Apr - 14:11:15 10° W 14:14:43 19° SW 14:18:27 10° S daylight
18 Apr - 21:14:09 10° SSW 21:19:57 40° SE 21:25:54 10° ENE visible
18 Apr - 22:57:33 10° SW 23:03:12 36° WNW 23:08:54 10° N visible
19 Apr - 11:53:23 10° N 11:57:41 37° ENE 12:02:26 10° SE daylight
19 Apr - 13:36:59 10° WNW 13:41:03 26° SW 13:45:29 10° S daylight
19 Apr - 20:41:00 10° S 20:46:22 30° SE 20:51:51 10° ENE visible
19 Apr - 22:23:52 10° SW 22:29:54 50° WNW 22:36:01 10° N visible
20 Apr - 11:20:41 10° NNE 11:24:28 24° ENE 11:28:35 10° SE daylight
20 Apr - 13:02:59 10° WNW 13:07:26 36° SW 13:12:22 10° SSE daylight
20 Apr - 20:07:57 10° S 20:12:42 22° SE 20:17:34 10° E visible
20 Apr - 21:50:18 10° SSW 21:56:33 71° WNW 22:02:54 10° NNE visible
21 Apr - 10:48:27 10° NE 10:51:19 16° ENE 10:54:20 10° ESE daylight
21 Apr - 12:29:14 10° NW 12:33:54 53° WSW 12:39:07 10° SSE daylight
21 Apr - 19:35:04 10° S 19:38:59 17° SE 19:42:58 10° E visible
21 Apr - 21:16:51 10° SSW 21:23:09 85° ESE 21:29:33 10° NNE visible
21 Apr - 23:02:22 10° WSW 23:05:43 15° WNW 23:09:05 10° NW visible
22 Apr - 11:55:41 10° NNW 12:00:26 79° WSW 12:05:46 10° SSE daylight
22 Apr - 13:42:39 10° WSW 13:44:45 12° SW 13:46:56 10° SSW daylight
22 Apr - 19:02:32 10° SSE 19:05:12 13° SE 19:07:53 10° ESE visible
22 Apr - 20:43:29 10° SSW 20:49:41 62° ESE 20:56:01 10° NE visible
22 Apr - 22:27:53 10° WSW 22:32:32 22° WNW 22:37:13 10° NNW visible
23 Apr - 11:22:21 10° NNW 11:27:02 69° ENE 11:32:19 10° SSE daylight
23 Apr - 13:07:44 10° W 13:10:58 17° SW 13:14:25 10° S daylight
23 Apr - 20:10:12 10° SSW 20:16:11 45° SE 20:22:16 10° NE visible
23 Apr - 21:53:52 10° SW 21:59:19 31° WNW 22:04:47 10° NNW visible
24 Apr - 10:49:14 10° N 10:53:44 45° ENE 10:58:44 10° SE daylight
24 Apr - 12:33:20 10° W 12:37:15 23° SW 12:41:31 10° S daylight
24 Apr - 19:37:00 10° S 19:42:37 34° SE 19:48:19 10° ENE visible
24 Apr - 21:20:06 10° SW 21:26:02 44° WNW 21:32:00 10° N visible
25 Apr - 10:16:24 10° NNE 10:20:29 29° ENE 10:24:58 10° SE daylight
25 Apr - 11:59:14 10° WNW 12:03:36 32° SW 12:08:26 10° S daylight
25 Apr - 19:03:54 10° S 19:08:59 25° SE 19:14:08 10° ENE visible
25 Apr - 20:46:29 10° SW 20:52:42 62° WNW 20:58:58 10° NNE visible
26 Apr - 09:43:55 10° NNE 09:47:18 19° ENE 09:50:55 10° ESE daylight
26 Apr - 11:25:23 10° NW 11:30:02 46° SW 11:35:14 10° SSE daylight
26 Apr - 18:30:56 10° S 18:35:16 19° SE 18:39:41 10° E visible
26 Apr - 20:12:59 10° SSW 20:19:19 85° WNW 20:25:43 10° NNE visible
26 Apr - 21:59:15 10° WSW 22:01:46 13° W 22:04:17 10° NW visible
